Location: Ottawa
(45.4170°N, 75.7000°W)
Time: 01:23:47
(UTC-04:00)

ISS - Visible Passes

Search period start: 29 June 2017 00:00
Search period end: 09 July 2017 00:00
Orbit: 401 x 408 km, 51.6° (Epoch: 29 June)

Date Brightness Start Highest point End Pass type
(mag) Time Alt. Az. Time Alt. Az. Time Alt. Az.
06 Jul -1.3 04:02:16 10° SSE 04:03:39 12° SE 04:05:02 10° ESE visible
07 Jul -3.2 04:44:16 10° SW 04:47:24 45° SE 04:50:33 10° ENE visible
08 Jul -2.3 03:53:34 17° S 03:55:13 26° SE 03:58:00 10° E visible
